EHI
0 0 0 0 0 0 0 0 0 0 0 0 0 0 0 0 0 0 0 0 0 0 0 0 0 0 0 0 0 0 0 0 0 0 0 0 0 0
0 0 0 0 0 0 0 0 0 0 0 0 0 0 0 0 0 0 0 0 0 0 0 0 0 0 0 0 0 0 0 0 0 0 0 0 0 0
0 0 0 0 0 0 0 0 0 0 0 0 0 0 0 0 0 0 0 0 0 0 0 0 0 0 0 0 0 0 0 0 0 0 0 0 0 0
0 0 0 0 0 0 0 0 0 0 0 0 0 0 0 0 0 0 0 0 0 0 0 0 0 0 0 0 0 0 0 0 0 0 0 0 0 0
0 0 0 0 0 0 0 0 0 0 0 0 0 0 0 0 0 0 0 0 0 0 0 0 0 0 0 0 0 0 0 0 0 0 0 0 0 0
0 0 0 0 0 0 0 0 0 0 0 0 0 0 0 0 0 0 0 0 0 0 0 0 0 0 0 0 0 0 0 0 0 0 0 0 0 0
0 0 0 0 0 0 0 0 0 0 0 0 0 0 0 0 0 0 0 0 0 0 0 0 0 0 0 0 0 0 0 0 0 0 0 0 0 0
0 0 0 0 0 0 0 0 0 0 0 0 0 0 0 0 0 0 0 0 0 0 0 0 0 0 0 0 0 0 0 0 0 0 0 0 0 0
0 0 0 0 0 0 0 0 0 0 0 0 0 0 0 0 0 0 0 0 0 0 0 0 0 0 0 0 0 0 0 0 0 0 0 0 0 0
0 0 0 0 0 0 0 0 0 0 0 0 0 0 0 0 0 0 0 0 0 0 0 0 0 0 0 0 0 0 0 0 0 0 0 0 0 0
0 0 0 0 0 0 0 0 0 0 0 0 0 0 0 0 0 0 0 0 0 0 0 0 0 0 0 0 0 0 0 0 0 0 0 0 0 0
0 0 0 0 0 0 0 0 0 0 0 0 0 0 0 0 0 0 0 0 0 0 0 0 0 0 0 0 0 0 0 0 0 0 0 0 0 0
0 0 0 0 0 0 0 0 0 0 0 0 0 0 0 0 0 0 0 0 0 0 0 0 0 0 0 0 0 0 0 0 0 0 0 0 0 0
0 0 0 0 0 0 0 0 0 0 0 0 0 0 0 0 0 0 0 0 0 0 0 0 0 0 0 0 0 0 0 0 0 0 0 0 0 0
0 0 0 0 0 0 0 0 0 0 0 0 0 0 0 0 0 0 0 0 0 0 0 0 0 0 0 0 0 0 0 0 0 0 0 0 0 0
0 0 0 0 0 0 0 0 0 0 0 0 0 0 0 0 0 0 0 0 0 0 0 0 0 0 0 0 0 0 0 0 0 0 0 0 0 0
0 0 0 0 0 0 0 0 0 0 0 0 0 0 0 0 0 0 0 0 0 0 0 0 0 0 0 0 0 0 0 0 0 0 0 0 0 0
0 0 0 0 0 0 0 0 0 0 0 0 0 0 0 0 0 0 0 0 0 0 0 0 0 0 0 0 0 0 0 0 0 0 0 0 0 0
0 0 0 0 0 0 0 0 0 0 0 0 0 0 0 0 0 0 0 0 0 0 0 0 0 0 0 0 0 0 0 0 0 0 0 0 0 0
0 0 0 0 0 0 0 0 0 0 0 0 0 0 0 0 0 0 0 0 0 0 0 0 0 0 0 0 0 0 0 0 0 0 0 0 0 0
0 0 0 0 0 0 0 0 0 0 0 0 0 0 0 0 0 0 0 0 0 0 0 0 0 0 0 0 0 0 0 0 0 0 0 0 0 0
0 0 0 0 0 0 0 0 0 0 0 0 0 0 0 0 0 0 0 0 0 0 0 0 0 0 0 0 0 0 0 0 0 0 0 0 0 0
0 0 0 0 0 0 0 0 0 0 0 0 0 0 0 0 0 0 0 0 0 0 0 0 0 0 0 0 0 0 0 0 0 0 0 0 0 0
Wind_Speed
6 6 5 4 4 4 3 3 3 3 3 2 1 1 1 1 2 4 5 7 8 8 7 7 7 7 8 7 7 6 6 6 5 5 6 5 5 5
4 6 5 4 4 4 4 4 4 3 2 1 2 1 1 1 2 3 1 5 6 6 7 7 7 7 7 7 7 7 7 7 7 7 7 7 7 7
4 4 4 4 3 4 4 3 3 3 3 1 1 1 2 2 2 2 3 4 4 6 5 6 6 6 7 7 7 7 7 8 8 8 8 8 8 8
4 4 4 3 4 3 3 4 4 3 3 3 2 1 2 1 2 2 2 2 2 6 3 3 3 4 4 5 5 6 7 7 8 8 8 9 9 9
3 3 3 4 4 3 4 3 3 3 3 2 2 1 1 1 1 2 2 1 2 5 4 4 3 1 1 2 2 3 5 5 6 6 7 8 8 8
2 2 2 3 3 3 3 3 3 3 3 3 2 2 2 1 1 2 3 2 2 3 4 4 5 5 5 5 4 3 3 3 4 4 5 5 6 6
3 3 3 4 6 3 1 2 3 3 3 3 3 3 2 2 1 1 3 3 4 3 3 3 3 4 4 5 6 6 5 4 3 2 2 3 3 4
4 4 5 5 7 7 6 5 3 2 3 3 2 2 3 3 2 1 2 2 3 2 3 4 4 5 6 6 9 10 9 8 6 5 4 3 3 3
4 4 4 4 4 7 8 8 8 7 3 2 4 3 3 3 2 2 2 3 3 2 2 3 4 5 5 8 12 13 12 11 10 9 8 7 6 5
5 4 4 5 5 4 6 7 8 8 5 4 6 6 5 3 3 3 4 5 5 3 2 3 3 4 5 6 12 14 13 13 12 12 10 9 7 7
6 6 5 6 6 3 5 8 9 8 11 13 12 10 10 9 5 2 3 3 4 3 3 2 3 3 4 5 8 12 13 14 14 14 13 11 8 3
5 6 9 7 6 5 4 6 7 7 7 8 7 7 7 7 5 3 2 2 3 3 2 1 2 2 3 4 4 4 7 10 11 13 14 15 13 5
5 5 6 8 7 7 5 6 6 5 6 6 5 5 5 6 6 6 6 4 3 4 2 1 0 0 2 3 3 5 5 5 5 7 11 13 13 10
5 5 7 9 10 8 7 8 5 3 5 5 5 5 5 5 5 6 7 8 7 6 4 2 1 1 2 3 3 3 5 5 5 5 5 5 7 8
7 10 9 7 7 9 10 5 2 3 4 5 5 5 4 5 5 5 6 7 9 8 6 6 4 3 3 4 3 2 3 4 5 5 5 6 6 6
6 8 9 9 7 7 5 5 5 5 4 5 5 4 4 4 3 3 3 4 5 7 9 9 8 7 6 6 4 4 4 3 3 4 4 5 5 6
3 3 4 4 5 5 5 5 5 4 5 4 4 4 4 4 4 3 3 3 4 5 6 6 8 8 10 7 4 4 4 3 3 3 3 4 5 5
1 4 5 5 5 4 5 5 5 5 4 4 4 3 3 4 4 3 3 3 4 4 4 3 3 3 5 7 8 4 3 3 3 3 2 2 3 4
3 4 4 4 4 4 4 4 4 4 3 3 3 3 3 3 3 3 3 3 4 4 3 2 1 1 1 3 5 6 4 2 1 1 2 2 3 4
4 4 4 4 3 3 3 3 3 3 3 3 3 3 2 3 3 3 3 3 3 3 3 2 3 3 3 3 3 4 5 4 2 1 1 1 0 2
3 3 3 3 3 3 3 2 2 2 3 2 3 2 2 2 2 3 3 3 1 2 3 3 3 2 1 2 3 3 4 3 4 5 5 3 2 2
2 2 2 1 2 2 2 1 2 2 2 2 2 2 2 2 2 2 2 2 2 2 3 3 3 1 0 0 1 2 2 3 4 3 1 3 5 5
2 2 2 2 1 1 1 2 2 2 2 2 2 2 2 1 1 2 2 2 2 2 2 3 2 2 1 1 0 1 1 1 1 2 2 5 3 5
Wind_Direction
206 207 207 199 199 208 211 210 223 232 219 210 197 164 221 242 150 231 236 175 201 211 215 217 219 224 231 235 240 248 254 255 256 261 265 269 278 284
201 208 207 202 196 201 205 210 217 233 234 175 190 172 219 216 181 251 239 147 200 206 214 218 220 225 231 235 239 241 243 243 247 251 256 261 268 274
188 192 197 191 191 196 199 206 212 216 227 207 205 197 216 220 185 219 204 210 178 186 207 215 221 228 234 238 241 242 243 246 250 253 257 261 264 269
176 178 182 171 186 185 188 195 198 201 213 208 183 195 210 197 220 195 200 207 173 138 177 202 219 234 243 252 255 254 252 251 252 255 261 265 268 271
164 169 175 174 180 178 182 179 184 185 195 193 171 152 154 160 176 151 157 141 131 130 143 137 104 81 25 330 308 288 273 264 260 260 265 270 275 279
121 130 144 158 161 170 175 172 172 166 174 175 159 147 125 141 177 151 132 113 105 99 87 88 100 97 76 53 33 9 334 299 279 272 272 273 277 282
102 101 86 75 64 71 113 155 164 161 158 157 148 139 135 144 133 135 119 117 92 70 86 80 88 72 67 60 45 30 23 11 350 328 308 299 298 301
98 96 108 113 104 96 79 66 53 130 148 147 140 134 118 111 101 120 134 143 105 62 75 70 65 62 52 45 40 44 43 40 33 29 32 31 23 15
84 96 94 98 127 118 115 116 87 62 36 99 114 103 103 104 118 114 99 83 82 75 84 80 70 65 61 55 50 49 48 46 46 47 50 52 51 47
64 76 95 100 83 101 113 102 88 72 53 72 82 73 64 70 81 89 98 106 105 87 64 79 75 69 68 68 60 56 52 50 49 49 50 49 51 56
59 54 58 87 58 27 114 109 102 89 71 68 69 77 65 40 12 113 134 139 114 94 63 83 109 97 86 86 78 71 65 58 52 50 46 35 22 43
71 70 55 62 62 7 112 114 109 107 112 111 106 116 96 76 21 50 49 88 114 99 60 73 139 140 105 73 62 66 75 76 67 57 49 36 16 24
71 68 65 64 63 39 38 83 89 103 106 100 93 83 74 66 58 52 44 33 61 76 51 353 187 171 118 117 70 46 42 47 57 71 65 50 35 28
68 69 73 71 69 57 65 77 76 90 105 103 93 82 75 71 67 66 65 63 59 62 42 6 32 40 117 117 95 60 48 41 38 39 51 75 67 63
70 69 71 77 96 85 76 72 97 96 96 94 88 80 75 77 82 81 80 77 71 59 44 43 54 54 60 80 88 75 60 44 32 33 38 39 39 34
96 98 92 75 79 88 93 77 69 65 77 90 92 94 96 91 82 86 95 100 89 73 57 53 54 61 69 67 71 63 52 50 35 36 40 46 45 42
81 98 90 91 83 79 78 74 78 89 86 88 95 100 100 93 82 73 73 91 96 94 87 75 74 74 62 46 71 64 63 59 44 34 36 50 52 45
74 92 86 83 82 84 86 85 80 75 76 81 86 90 93 94 91 85 87 92 96 95 92 95 116 134 124 81 32 36 55 52 43 31 18 31 58 55
95 90 88 86 84 84 84 83 81 78 76 83 86 90 96 97 96 95 95 95 95 95 87 64 338 279 162 109 85 26 15 44 30 42 27 13 33 46
79 85 87 86 85 87 88 92 95 95 90 90 91 90 93 100 99 98 92 92 103 107 101 71 33 14 23 62 95 83 29 9 360 3 358 327 52 174
92 91 89 95 94 92 90 94 99 100 100 103 96 96 99 104 105 107 100 90 106 115 101 80 59 318 37 128 126 111 90 67 4 356 345 321 306 296
113 119 115 112 112 110 115 131 136 129 135 132 117 118 112 114 121 119 119 137 125 102 99 102 129 170 149 45 88 104 111 139 149 155 39 355 339 338
157 155 159 171 171 174 182 179 182 159 157 158 148 148 145 141 134 130 131 136 131 133 139 131 128 117 93 80 77 78 70 326 312 262 167 161 212 256